Regional Weather Roundup
Issued by NWS

Home | Current Version | Previous Version | Graphics & Text | Print | Product List | Glossary On
Versions: 1 2 3 4 5 6 7 8 9 10 11 12 13 14 15 16 17 18 19 20 21 22 23 24 25 26 27 28 29 30 31 32 33 34 35 36 37 38 39 40 41 42 43 44 45 46 47 48 49 50
000
ASUS43 KMKX 041400
RWRWI

WISCONSIN REGIONAL WEATHER ROUNDUP
NATIONAL WEATHER SERVICE MILWAUKEE/SULLIVAN WI
900 AM CDT TUE AUG 04 2015

NOTE: "FAIR" INDICATES FEW OR NO CLOUDS BELOW 12,000 FEET WITH NO
SIGNIFICANT WEATHER AND/OR OBSTRUCTIONS TO VISIBILITY.

WIZ001-002-006>008-014>016-023>028-041500-
NORTHWEST WISCONSIN

CITY           SKY/WX    TMP DP  RH WIND       PRES   REMARKS
SUPERIOR ARPT  SUNNY     62  56  79 SW7       29.96R
ASHLAND        SUNNY     65  55  70 VRB5      29.96R
HAYWARD        SUNNY     64  53  67 VRB3      29.99R
SIREN          SUNNY     61  54  77 CALM      30.00R
CUMBERLAND     SUNNY     63  54  72 W6        30.00R
RICE LAKE      SUNNY     62  56  81 W3        30.01R
CHETEK         SUNNY     64  56  75 SW5       30.00R
LADYSMITH      SUNNY     63  55  73 W8        30.00R
EAU CLAIRE     NOT AVBL
MENOMONIE      SUNNY     65  54  67 SW6       30.01R
NEW RICHMOND   SUNNY     65  55  70 W7        30.01F
OSCEOLA        SUNNY     63  60  90 W6        30.04R
$$

WIZ003>005-009-010-017-018-041500-
NORTH CENTRAL WISCONSIN

CITY           SKY/WX    TMP DP  RH WIND       PRES   REMARKS
MANITOWISH WTR PTSUNNY   60  56  87 NW8       29.94R
ARBOR VITAE    MOSUNNY   62  55  77 N10       29.94R
WOODRUFF       MOSUNNY   62  55  77 N10       29.94R
RHINELANDER    SUNNY     64  53  67 NW9G18    29.96R
EAGLE RIVER    CLOUDY    58  55  87 NW7       29.93R
LAND O LAKES   CLOUDY    59  54  83 NW8       29.94R
PHILLIPS       SUNNY     61  54  77 W5        29.97R
TOMAHAWK       SUNNY     61  53  74 NW8       29.96R
MEDFORD        SUNNY     63  54  72 W7        29.98R
MERRILL        NOT AVBL
$$

WIZ029-030-035-036-043>047-041500-
CENTRAL WISCONSIN

CITY           SKY/WX    TMP DP  RH WIND       PRES   REMARKS
WAUSAU         SUNNY     66  52  60 NW8       29.96R
MOSINEE        SUNNY     64  54  68 NW7       29.99R
MARSHFIELD     SUNNY     67  52  58 W7        30.00R
STEVENS POINT  SUNNY     63  53  68 W8        29.98R
WAUPACA        SUNNY     69  55  60 W9        29.96R
WAUTOMA        NOT AVBL
WISC RAPIDS    SUNNY     67  52  58 NW7       30.01R
CAMP DOUGLAS   NOT AVBL
$$

WIZ011>013-019>022-031-037>040-048>050-041500-
NORTHEAST WISCONSIN

CITY           SKY/WX    TMP DP  RH WIND       PRES   REMARKS
ANTIGO         SUNNY     62  54  74 NW12      29.95R
SHAWANO        SUNNY     65  57  73 W5        29.94R
OCONTO         CLOUDY    64  58  80 NW6       29.92R
STURGEON BAY   CLOUDY    63  54  72 NW7       29.95R
GREEN BAY      MOSUNNY   67  58  72 W7        29.94R
MANITOWOC      NOT AVBL
APPLETON       MOSUNNY   64  54  68 W8        29.96R
CLINTONVILLE   SUNNY     66  54  63 NW8       29.95R
OSHKOSH        SUNNY     66  56  70 W6        29.95R
$$

WIZ032>034-041-042-053>061-041500-
SOUTHWEST WISCONSIN

CITY           SKY/WX    TMP DP  RH WIND       PRES   REMARKS
LA CROSSE      SUNNY     67  57  70 S5        30.01R
SPARTA         SUNNY     64  53  69 CALM      30.01R
VIROQUA        SUNNY     65  57  76 CALM      30.02R
BOSCOBEL       MOSUNNY   68  57  68 W3        30.01R
PRAIRIE DU CHI MOSUNNY   65  54  68 CALM      30.01S
PLATTEVILLE    MOSUNNY   65  58  80 NW6       30.01R
$$

WIZ056-057-062-063-064-067-068-041500-
SOUTH CENTRAL WISCONSIN

CITY           SKY/WX    TMP DP  RH WIND       PRES   REMARKS
REEDSBURG      SUNNY     65  55  71 W7        29.99R
BARABOO/DELLS  SUNNY     65  53  63 NW5       29.99R
LONE ROCK      NOT AVBL
MINERAL POINT  SUNNY     66  55  68 NW6       30.01R
MADISON        PTSUNNY   69  57  65 NW9       29.98R
MIDDLETON      SUNNY     68  55  64 NW6       29.99R
WATERTOWN      MOSUNNY   66  57  73 NW6       29.96R
MONROE         SUNNY     64  55  72 NW9       29.99R
JANESVILLE     SUNNY     70  55  60 NW6       29.97R
$$

WIZ051-052-058>065-066-070>072-041500-
SOUTHEAST WISCONSIN

CITY           SKY/WX    TMP DP  RH WIND       PRES   REMARKS
MILWAUKEE      MOSUNNY   74  52  46 W9        29.95R
WAUKESHA       SUNNY     68  54  60 W9        29.97R
MILWAUKEE/TIMM SUNNY     70  52  52 W7        29.95S
RACINE         SUNNY     72  55  55 W8        29.97R
BURLINGTON     SUNNY     68  55  63 W5        29.96S
KENOSHA        SUNNY     71  59  65 W8        29.97R
FOND DU LAC    SUNNY     68  57  68 NW10      29.96R
SHEBOYGAN      SUNNY     68  58  70 NW13      29.94R
WEST BEND      SUNNY     66  52  59 W8        29.96R
JUNEAU         MOSUNNY   64  56  75 W5        29.97R
$$

LSZ147-162-041500-
LAKE SUPERIOR

STATION/POSITION TIME  TEMP    WIND        PRES    WAVE
                       AIR SEA DIR/SP/G            HT/PER
                 (UTC) (F)     (DEG/KT/KT) (MB)    (FT/S)
W MID LAKE BUOY  1250   56 56  310/  6/  6 1012.7R   1
DEVILS ISLAND    1300   57     270/  8/  9 1013.7R
PORT WING        1340   60     250/  4/  7 1014.6R
SAXON HARBOR     1340   63     320/  6     1013.5R
$$

LMZ867-665-643>646-041500-
LAKE MICHIGAN

STATION/POSITION TIME  TEMP    WIND        PRES    WAVE
                       AIR SEA DIR/SP/G            HT/PER
                 (UTC) (F)     (DEG/KT/KT) (MB)    (FT/S)
CHAMBERS ISLAND  1300   62     300/  4/  8 1012.5R
N MID LAKE BUOY  1250   62 67  300/ 10/ 12 1011.6R   1/ 4
NORTHPORT PIER   1300   63     310/ 10/ 12 1012.2R
SISTER BAY       1303   63     340/ 13/ 14   N/A
ALGOMA LAKESHORE 1312          300/  9/ 11   N/A
KEWAUNEE LAKESHO 1300   64     310/  2/  5 1012.2R
SHEBOYGAN LAKESH 1300   64     260/  9/ 10 1013.2R
PORT WASHINGTON  1300   70     270/  5/  8 1014.2R
ATWATER BUOY     1300   63 54  280/  8/ 10 1015.1R
MILWAUKEE LAKESH 1300   69     270/  8/ 11   N/A
KENOSHA   LAKESH 1300   69     260/  7/ 11 1014.2R
$$

TC  - TEMPERATURE IN CELSIUS
VSB - VISIBILITY IN STATUTE MILES
WCI - WIND CHILL INDEX
HX  - HEAT INDEX




USA.gov is the U.S. government's official web portal to all federal, state and local government web resources and services.